Tracking 19245 objects as of 22-Aug-2018
HD Live streaming from Space Station
objects crossing your sky now

AMC-9 (GE-12)

Track AMC-9 (GE-12) now!
AMC-9 (GE-12) is classified as:


NORAD ID: 27820
Int'l Code: 2003-024A
Perigee: 36,088.4 km
Apogee: 36,200.2 km
Inclination: 0.9 °
Period: 1,454.0 minutes
Semi major axis: 42515 km
RCS: 43.0775 m2 (large)
Launch date: June 6, 2003
Source: SOCIETE EUROPEENNE DES SATELLITES (SES)
Launch site: TYURATAM MISSILE AND SPACE COMPLEX (TTMTR)

Television programmers, government agencies and enterprise networks; 24 Ku-band; CONUS and Mexico.
aabbcc
Your satellite tracking list
Your tracking list is empty




NASA's NSSDC Master Catalog

Two Line Element Set (TLE):
1 27820U 03024A   18232.87064806 -.00000196 +00000-0 +00000-0 0  9990
2 27820 000.9402 090.4334 0013147 263.1493 287.2085 00.99034019055695
Source of the keplerian elements: AFSPC